Date,TemperatureHighF,TemperatureAvgF,TemperatureLowF,DewpointHighF,DewpointAvgF,DewpointLowF,HumidityHigh,HumidityAvg,HumidityLow,PressureMaxIn,PressureMinIn,WindSpeedMaxMPH,WindSpeedAvgMPH,GustSpeedMaxMPH,PrecipitationSumIn
2014-1-1,52.6,47.8,43.9,51.4,47.6,43.9,100,99,90,30.31,30.18,4,0,5,0.00
2014-1-2,50.7,46.7,44.2,48.1,45.9,44.2,100,97,82,30.18,29.94,4,1,13,0.14
2014-1-3,50.8,43.8,37.3,50.8,43.2,37.3,100,98,77,30.26,30.00,5,1,8,0.01
2014-1-4,46.7,40.2,35.3,41.3,38.0,35.3,100,93,69,30.37,30.27,7,3,12,0.01
2014-1-5,41.6,36.9,32.1,38.9,35.9,32.1,100,96,79,30.39,30.21,13,5,19,0.00
2014-1-6,44.8,38.7,32.9,40.6,33.9,28.7,100,85,53,30.20,30.09,3,0,10,0.03
2014-1-7,47.1,43.5,39.5,47.1,43.4,36.3,100,100,87,30.10,29.92,1,0,7,0.19
2014-1-8,55.0,51.4,46.8,55.0,51.3,46.8,100,100,95,29.97,29.70,4,1,10,0.13
2014-1-9,52.6,49.0,45.7,52.6,48.9,45.7,100,100,88,29.99,29.77,8,1,18,0.07
2014-1-10,56.2,53.0,51.0,55.0,52.4,50.0,100,98,81,30.10,29.62,6,1,17,0.04
2014-1-11,57.8,50.3,46.5,54.5,48.4,43.0,100,93,75,29.90,29.45,14,5,26,0.37
2014-1-12,53.5,48.4,44.2,53.5,47.9,39.8,100,98,74,30.37,29.91,7,1,15,0.22
2014-1-13,55.6,52.5,50.5,55.6,52.3,50.5,100,99,91,30.60,30.37,1,0,2,0.01
2014-1-14,53.5,50.3,48.0,53.3,50.3,48.0,100,100,100,30.60,30.50,0,0,0,0.00
2014-1-15,54.1,47.6,41.6,49.6,46.3,41.6,100,96,73,30.51,30.39,6,1,10,0.00
2014-1-16,46.7,43.1,39.8,46.7,43.0,39.8,100,100,97,30.41,30.24,9,2,14,0.00
2014-1-17,43.8,40.8,37.9,43.6,40.8,37.8,100,100,98,30.24,30.11,8,2,13,0.00
2014-1-18,55.4,42.9,36.9,44.8,40.0,36.9,100,91,54,30.22,30.10,7,1,16,0.00
2014-1-19,50.5,41.3,36.3,43.2,39.6,36.3,100,95,62,30.20,30.08,11,2,17,0.00
2014-1-20,47.4,40.9,36.2,43.2,40.1,36.2,100,97,77,30.25,30.17,9,2,13,0.00
2014-1-21,50.2,41.5,34.7,37.3,34.7,31.9,100,78,53,30.30,30.17,4,0,12,0.00
2014-1-22,47.4,42.1,38.0,46.2,40.8,32.9,100,95,76,30.33,30.25,4,0,6,0.00
2014-1-23,51.7,44.6,35.0,45.4,42.1,35.0,100,92,62,30.35,30.25,10,2,18,0.00
2014-1-24,52.8,38.5,32.8,43.9,36.8,32.8,100,95,58,30.32,30.20,10,0,14,0.00
2014-1-25,52.3,39.9,32.7,36.3,32.6,29.2,100,79,43,30.34,30.19,1,0,6,0.00
2014-1-26,52.0,38.9,29.4,39.5,31.7,27.4,100,78,48,30.19,30.00,2,0,10,0.00
2014-1-27,40.9,37.3,32.9,34.5,28.5,26.9,88,71,60,30.17,30.05,2,1,10,0.00
2014-1-28,45.1,40.7,37.9,42.5,36.3,30.2,100,85,68,30.17,29.87,3,1,12,0.12
2014-1-29,53.3,46.8,40.5,53.2,46.3,40.3,100,98,79,29.87,29.60,13,2,19,0.19
2014-1-30,50.1,44.7,41.6,47.6,43.6,38.9,100,97,67,29.90,29.84,9,0,14,0.25
2014-1-31,46.8,43.9,42.3,46.8,43.9,42.3,100,100,100,30.08,29.90,2,0,10,0.06
2014-2-1,52.9,44.3,37.0,47.4,41.8,36.6,100,92,54,30.11,29.97,3,0,12,0.05
2014-2-2,45.1,38.3,33.8,39.3,36.3,33.8,100,93,67,29.97,29.86,6,1,9,0.05
2014-2-3,43.9,36.7,29.3,38.3,28.8,20.0,100,76,42,30.11,29.93,6,1,10,0.00
2014-2-4,37.2,31.4,27.2,28.1,22.9,8.3,100,73,40,30.29,30.10,7,2,12,0.00
2014-2-5,32.9,26.5,21.8,20.9,4.0,-4.7,95,41,24,30.35,30.19,7,1,19,0.00
2014-2-6,26.4,22.2,18.6,23.5,15.3,-3.6,100,77,33,30.18,29.69,2,0,12,0.00
2014-2-7,30.1,25.7,19.9,30.1,24.0,19.4,100,94,71,29.85,29.62,3,0,7,0.05
2014-2-8,33.4,30.9,28.1,32.8,30.7,28.1,100,99,89,29.92,29.69,2,0,5,0.01
2014-2-9,37.0,33.3,30.4,37.0,33.3,30.4,100,100,100,30.01,29.89,3,1,10,0.14
2014-2-10,41.6,37.2,32.8,41.6,36.9,31.0,100,99,90,30.08,30.00,7,1,20,0.30
2014-2-11,49.6,45.6,41.5,49.6,45.6,41.3,100,100,100,30.08,29.59,7,1,19,0.15
2014-2-12,58.0,51.9,49.2,54.4,49.7,42.4,100,93,58,29.85,29.53,9,2,28,0.03
2014-2-13,54.5,49.0,43.5,51.7,42.9,38.4,100,80,58,30.07,29.71,3,0,7,0.05
2014-2-14,53.9,47.4,39.1,50.8,45.2,38.9,100,93,64,29.90,29.60,12,1,18,0.17
2014-2-15,52.6,43.1,38.2,52.6,42.6,38.2,100,98,84,29.87,29.23,15,1,27,0.37
2014-2-16,47.9,44.1,38.6,45.8,41.2,35.8,100,90,73,29.96,29.68,10,4,26,0.08
2014-2-17,47.7,43.6,40.6,47.7,43.2,40.5,100,99,82,29.91,29.67,8,1,18,0.95
2014-2-18,49.4,45.0,38.9,49.4,43.9,37.9,100,97,70,29.91,29.60,12,2,19,0.60
2014-2-19,48.8,40.9,38.0,43.0,39.4,34.3,100,95,59,30.11,29.88,9,0,12,0.20
2014-2-20,46.1,44.2,40.5,46.1,43.8,40.5,100,99,83,30.21,30.12,6,0,10,0.12
2014-2-21,49.4,42.3,33.8,47.3,38.4,33.0,100,88,56,30.23,30.17,8,1,18,0.00
2014-2-22,47.1,38.6,31.0,42.8,35.0,31.0,100,89,58,30.18,29.99,0,0,0,0.00
2014-2-23,48.3,43.3,36.0,44.6,39.9,36.0,100,89,71,29.99,29.85,2,0,7,0.00
2014-2-24,47.7,46.4,44.6,47.7,46.2,44.2,100,99,91,29.98,29.91,3,0,7,0.08
2014-2-25,56.0,46.7,39.5,48.3,40.2,31.6,100,81,46,30.00,29.89,7,2,11,0.01
2014-2-26,55.0,44.4,34.7,41.2,34.7,29.2,100,73,39,29.90,29.60,6,1,13,0.00
2014-2-27,45.7,42.4,37.6,44.6,40.0,33.7,100,92,64,29.68,29.55,4,0,10,0.00
2014-2-28,64.2,49.8,41.8,46.4,43.7,39.4,100,82,47,29.66,29.34,11,2,17,0.01
2014-3-1,46.5,41.3,37.3,41.6,36.8,33.5,100,85,62,29.66,29.42,5,1,19,0.00
2014-3-2,51.9,40.8,35.8,50.5,40.6,35.5,100,99,88,29.72,29.52,4,1,12,0.09
2014-3-3,59.3,51.7,47.3,55.7,48.9,43.7,100,91,61,29.88,29.61,15,2,24,0.15
2014-3-4,57.0,52.0,47.0,53.6,48.9,47.0,100,90,72,29.92,29.73,5,0,19,0.00
2014-3-5,58.1,55.2,51.1,58.1,55.2,51.1,100,100,89,29.72,29.38,7,2,13,0.78
2014-3-6,54.7,51.0,47.7,54.7,49.9,45.6,100,96,73,30.06,29.49,12,3,24,0.48
2014-3-7,62.0,52.8,46.1,52.5,46.3,40.5,100,82,46,30.22,30.07,4,1,8,0.00
2014-3-10,52.2,48.3,41.3,48.2,43.9,40.7,100,85,67,30.42,30.02,12,3,18,0.29
2014-3-11,59.0,45.3,34.9,48.5,39.6,34.7,100,84,46,30.51,30.34,3,0,6,0.01
2014-3-12,67.1,49.5,33.5,43.2,36.5,30.2,100,68,27,30.34,30.07,6,0,12,0.00
2014-3-13,62.0,46.7,34.3,51.0,40.7,33.0,100,83,36,30.11,29.98,5,0,11,0.02
2014-3-14,58.3,52.0,45.2,51.9,46.0,39.5,100,82,52,30.27,29.91,9,2,17,0.21
2014-3-15,62.0,52.2,42.5,54.2,44.6,40.0,100,78,48,30.25,30.16,4,1,17,0.02
2014-3-16,54.1,48.7,41.9,53.8,48.1,41.9,100,98,85,30.20,29.95,8,2,13,0.87
2014-3-17,48.3,44.3,41.6,42.9,36.9,30.9,100,76,52,30.31,30.00,12,2,17,0.03
2014-3-18,59.3,47.1,41.6,47.3,42.4,39.5,100,86,51,30.30,30.11,1,0,7,0.00
2014-3-19,49.5,44.8,39.3,47.6,42.4,31.6,100,92,54,30.21,30.04,12,1,16,0.08
2014-3-20,50.5,41.8,35.5,46.8,37.3,32.0,100,86,55,30.30,30.21,6,0,7,0.03
2014-3-21,54.5,42.4,32.1,39.1,31.3,24.6,100,70,32,30.30,30.16,10,3,17,0.00
2014-3-22,61.0,46.2,31.8,36.5,29.6,14.2,100,59,16,30.25,30.12,8,2,16,0.00
2014-3-23,59.8,47.6,38.6,44.1,37.9,30.4,100,73,36,30.24,30.13,7,2,9,0.00
2014-3-24,70.6,52.6,36.9,41.2,37.4,31.4,100,63,24,30.13,29.80,6,1,8,0.00
2014-3-25,55.6,51.2,47.4,53.6,45.0,38.8,100,80,56,29.80,29.52,12,1,21,0.09
2014-3-26,49.4,47.0,45.1,49.1,46.9,45.1,100,100,91,29.58,29.45,2,0,14,0.40
2014-3-27,54.7,49.1,45.2,52.0,45.8,40.2,100,90,60,29.82,29.50,12,1,13,0.07
2014-3-28,55.4,50.4,47.0,55.4,50.4,47.0,100,100,99,29.81,29.64,7,1,16,0.25
2014-3-29,52.9,48.6,43.5,52.8,47.4,42.1,100,96,78,29.81,29.66,9,1,17,0.39
2014-3-30,55.4,46.1,40.8,49.3,43.5,35.6,100,92,49,29.93,29.82,4,0,14,0.00
2014-3-31,62.3,48.0,36.8,49.2,39.6,30.0,100,78,31,29.89,29.58,6,1,14,0.00
2014-4-1,52.3,48.5,45.2,51.3,46.8,42.9,100,94,76,29.87,29.65,7,1,13,0.00
2014-4-2,60.1,50.1,41.8,47.1,42.9,35.8,100,79,43,29.98,29.88,0,0,5,0.00
2014-4-3,54.7,48.4,43.3,49.4,44.1,37.4,100,87,52,29.93,29.85,4,1,13,0.00
2014-4-4,53.1,48.7,43.9,50.2,46.0,40.3,100,91,65,29.91,29.87,2,0,7,0.00
2014-4-5,55.1,50.4,47.1,54.5,50.2,47.1,100,99,81,30.08,29.90,8,1,13,0.00
2014-4-6,64.2,53.0,48.6,58.3,52.0,48.6,100,97,68,30.24,30.08,4,0,7,0.00
2014-4-7,74.2,56.9,48.6,55.4,49.4,39.5,100,81,30,30.24,30.02,10,1,17,0.00
2014-4-8,65.0,54.6,46.4,55.3,50.6,46.4,100,88,53,30.14,30.02,7,1,14,0.00
2014-4-9,61.5,50.5,39.9,50.5,41.8,34.3,100,76,37,30.20,30.10,7,2,14,0.00
2014-4-10,63.7,49.7,36.3,43.9,39.8,33.0,100,73,32,30.20,30.04,7,2,11,0.00
2014-4-11,65.6,51.4,38.6,46.7,43.1,38.6,100,76,43,30.10,29.95,10,2,18,0.00
2014-4-12,63.4,53.1,43.1,46.1,39.2,28.6,100,65,28,30.06,29.96,12,1,17,0.00
2014-4-13,75.8,57.6,40.8,42.8,37.3,27.9,100,54,18,30.20,30.06,2,0,4,0.00
2014-4-14,68.9,52.1,38.3,44.8,39.7,30.4,100,67,26,30.14,30.02,12,3,21,0.00
2014-4-15,60.1,52.2,47.3,44.5,40.3,35.2,90,65,41,30.17,30.05,7,1,12,0.00
2014-4-16,54.8,51.0,47.9,52.9,49.3,44.6,100,94,80,30.07,29.91,3,1,12,0.00
2014-4-17,55.0,51.4,46.2,55.0,51.4,46.0,100,100,96,29.93,29.72,9,1,18,0.00
2014-4-18,65.5,51.1,42.5,48.9,40.2,28.7,100,72,29,30.08,29.80,0,0,1,0.00
2014-4-19,56.0,47.4,40.5,52.8,45.3,40.5,100,93,67,30.16,29.73,16,2,26,0.00
2014-4-20,65.5,51.6,39.1,52.8,42.2,37.1,100,75,36,30.22,30.06,4,0,12,0.00
2014-4-21,67.4,52.5,44.8,52.6,46.2,39.9,100,83,38,30.06,29.79,9,0,18,0.00
2014-4-22,52.6,48.0,43.3,50.4,45.6,38.2,100,92,62,29.88,29.79,4,0,14,0.00
2014-4-23,53.3,49.4,45.4,53.3,49.4,45.4,100,100,100,29.86,29.61,6,2,14,0.00
2014-4-24,58.3,52.9,47.4,53.8,45.9,32.4,100,80,40,29.85,29.58,14,3,25,0.00
2014-4-25,58.6,49.8,41.5,48.7,41.4,33.8,100,76,44,29.83,29.76,7,0,14,0.00
2014-4-26,56.7,47.4,39.6,49.4,41.7,33.9,100,84,43,29.81,29.62,4,1,14,0.00
2014-4-27,53.2,47.4,43.8,49.4,43.3,35.7,100,87,54,30.09,29.63,6,1,13,0.00
2014-4-28,65.2,51.5,39.1,49.6,40.5,30.6,100,72,28,30.27,30.10,3,0,8,0.00
2014-4-29,82.0,62.4,45.2,48.5,41.8,33.0,100,57,18,30.39,30.24,6,0,13,0.00
2014-4-30,88.6,68.2,47.0,49.7,41.1,31.0,100,48,13,30.27,30.01,7,1,12,0.00
2014-5-1,89.9,70.0,49.8,50.2,44.6,32.0,92,47,14,30.01,29.88,8,1,16,0.00
2014-5-2,68.1,58.6,52.3,56.2,51.4,45.9,97,78,56,30.02,29.88,10,1,21,0.00
2014-5-3,58.7,53.8,49.4,55.7,50.5,45.5,100,90,62,29.91,29.67,6,1,21,0.00
2014-5-4,58.7,53.6,50.4,56.9,50.8,44.2,100,91,62,29.84,29.67,10,2,19,0.00
2014-5-5,63.1,54.4,49.1,53.0,48.5,40.4,100,82,51,30.00,29.84,6,1,14,0.00
2014-5-6,62.0,55.0,48.9,52.2,41.4,27.1,100,64,28,30.00,29.93,10,2,19,0.00
2014-5-7,70.3,54.0,41.2,48.5,41.7,36.5,100,68,29,29.99,29.83,5,0,13,0.00
2014-5-8,55.9,51.7,48.3,55.9,50.8,42.1,100,97,70,29.85,29.61,5,1,10,0.00
2014-5-9,54.7,50.2,46.2,52.8,48.2,42.5,100,93,69,29.96,29.75,6,0,12,0.00
2014-5-10,61.0,52.0,45.8,56.0,46.2,41.8,100,83,53,30.22,29.97,6,1,17,0.00
2014-5-11,69.8,55.9,41.8,53.9,45.0,40.6,100,72,36,30.27,30.16,4,0,7,0.00
2014-5-12,82.2,63.9,46.5,52.8,41.9,21.7,100,57,12,30.26,30.14,5,1,9,0.00
2014-5-13,83.8,66.6,48.3,48.4,42.1,32.8,97,48,18,30.25,30.14,9,3,16,0.00
2014-5-14,88.0,71.2,54.7,52.1,48.7,44.6,83,48,25,30.20,29.97,10,4,13,0.00
2014-5-15,83.0,68.3,56.0,56.2,52.9,48.2,99,62,32,30.02,29.89,5,1,12,0.00
2014-5-16,73.5,59.4,50.7,54.7,50.3,45.6,100,75,40,30.06,30.00,10,1,18,0.00
2014-5-17,67.9,59.9,54.4,55.1,49.9,44.3,100,72,45,30.03,29.80,5,0,12,0.00
2014-5-18,60.1,55.9,53.1,59.9,54.7,48.9,100,96,77,29.86,29.77,5,0,11,0.00
2014-5-19,72.7,60.1,52.6,57.3,51.3,41.4,100,77,35,29.99,29.85,8,2,17,0.00
2014-5-20,69.9,58.5,47.0,55.6,50.7,47.0,100,77,50,30.09,29.99,11,3,26,0.00
2014-5-21,70.9,59.6,50.1,53.0,49.7,45.2,100,72,45,30.13,30.01,9,2,18,0.00
2014-5-22,80.3,65.6,52.0,59.9,55.0,50.7,100,72,39,30.07,29.90,7,1,14,0.00
2014-5-23,67.4,60.8,56.7,65.5,59.7,50.7,100,96,75,30.09,29.92,7,1,13,0.00
2014-5-24,68.6,60.2,55.0,56.7,51.8,45.5,100,76,46,30.13,30.05,6,0,10,0.00
2014-5-25,67.1,56.1,48.8,60.5,52.8,48.8,100,90,57,30.08,29.92,3,0,10,0.00
2014-5-26,64.7,58.7,52.8,56.9,49.5,40.8,100,75,42,30.12,29.92,9,2,12,0.00
2014-5-27,65.0,56.1,46.5,53.9,45.9,36.9,100,72,39,30.11,30.04,9,2,16,0.00
2014-5-28,62.1,55.5,49.8,54.8,48.5,41.2,100,79,49,30.15,30.05,11,2,17,0.00
2014-5-29,63.5,56.8,51.9,56.5,49.2,41.2,100,78,47,30.18,30.06,3,0,6,0.00
2014-5-30,72.7,59.8,49.5,54.5,48.4,41.6,100,70,35,30.07,29.86,11,4,18,0.00
2014-5-31,69.8,59.0,47.6,55.3,51.3,47.6,100,78,53,30.04,29.94,12,2,22,0.00
2014-6-1,73.2,61.0,54.1,56.9,51.5,46.5,100,73,48,30.05,29.89,9,2,19,0.00
2014-6-2,66.9,58.1,53.6,56.6,53.5,47.7,100,86,64,29.91,29.81,12,3,21,0.00
2014-6-3,67.3,58.2,52.0,51.0,48.2,45.6,90,71,50,30.05,29.88,6,1,11,0.00
2014-6-4,67.9,57.5,50.7,53.6,49.5,45.5,100,77,48,30.09,30.02,11,2,20,0.00
2014-6-5,71.6,57.9,44.5,51.3,47.5,43.4,100,72,41,30.11,29.97,10,2,19,0.00
2014-6-6,75.6,60.0,45.2,55.4,49.2,42.6,100,72,40,30.08,29.98,13,3,20,0.00
2014-6-7,72.1,60.7,50.8,59.2,54.4,50.8,100,82,54,30.13,30.05,11,2,20,0.00
2014-6-8,73.7,62.1,55.3,58.0,56.2,53.5,100,83,57,30.16,30.02,9,2,16,0.00
2014-6-9,70.8,60.9,53.9,57.2,51.7,45.2,100,75,43,30.09,30.00,9,2,20,0.00
2014-6-10,70.9,59.5,48.0,56.2,49.7,44.4,100,73,46,30.07,29.99,10,2,18,0.00
2014-6-11,79.6,61.8,50.8,59.0,52.7,44.9,100,78,32,30.01,29.75,9,1,14,0.00
2014-6-12,63.7,57.3,54.2,58.9,55.6,51.5,100,95,65,29.85,29.77,3,0,14,0.19
2014-6-13,61.5,56.9,53.9,58.0,52.6,45.3,100,87,58,30.10,29.85,6,1,13,0.05
2014-6-14,64.2,57.8,52.9,55.0,50.6,45.4,100,79,53,30.10,29.94,10,2,19,0.00
2014-6-15,62.6,56.9,53.1,57.0,49.6,42.2,100,79,49,29.94,29.81,7,1,18,0.08
2014-6-16,61.6,55.0,50.5,53.1,48.2,43.0,100,79,56,29.95,29.84,11,2,19,0.01
2014-6-17,62.3,55.0,47.4,56.3,50.7,47.4,100,86,62,30.09,29.95,9,1,20,0.00
2014-6-18,72.0,60.6,51.4,55.9,49.2,43.3,100,70,37,30.09,29.94,8,0,10,0.00
2014-6-19,79.0,63.2,49.6,62.0,53.2,44.6,100,75,31,29.99,29.89,10,1,18,0.00
2014-6-20,68.3,60.4,52.8,58.3,48.3,41.0,100,68,39,30.09,29.99,8,1,14,0.00
2014-6-21,74.6,60.4,45.8,51.2,46.7,37.3,100,66,27,30.08,29.92,7,2,13,0.00
2014-6-22,79.0,64.7,49.2,54.1,48.1,39.8,100,61,25,30.03,29.88,7,2,14,0.00
2014-6-23,73.2,63.2,54.4,62.4,54.5,46.6,100,76,39,30.02,29.91,8,1,14,0.00
2014-6-24,78.1,65.0,58.6,64.9,59.6,54.9,100,84,49,30.05,29.95,4,0,10,0.00
2014-6-25,81.4,67.1,58.9,66.4,58.9,45.6,100,80,30,29.95,29.70,8,1,12,0.00
2014-6-26,63.7,60.5,57.8,63.1,59.3,53.3,100,96,70,29.78,29.73,5,1,10,0.00
2014-6-27,69.9,62.6,58.6,64.0,58.2,52.0,100,87,63,29.86,29.67,8,2,17,0.00
2014-6-28,68.9,62.4,58.7,65.8,59.8,56.6,100,92,66,30.00,29.86,8,1,14,0.00
2014-6-29,70.8,62.3,57.0,63.3,57.5,51.6,100,86,56,30.14,30.01,4,1,11,0.00
2014-6-30,80.5,66.2,51.7,58.9,54.1,50.6,100,70,37,30.16,29.88,10,4,17,0.00
2014-7-1,95.1,75.4,59.0,60.3,55.5,52.4,91,55,25,29.88,29.62,11,4,16,0.00
2014-7-2,77.0,66.1,61.2,63.4,57.2,44.9,100,76,33,29.97,29.75,10,2,19,0.00
2014-7-3,69.9,64.0,59.5,57.6,53.8,49.9,93,70,50,30.03,29.96,7,1,14,0.00
2014-7-4,77.7,64.4,50.8,57.6,54.2,49.7,100,72,41,30.01,29.91,7,2,16,0.00
2014-7-5,78.8,68.4,58.7,61.5,57.0,47.3,100,71,33,30.04,29.97,6,1,10,0.00
2014-7-6,84.7,70.7,57.2,68.9,61.0,55.3,100,76,43,30.10,30.00,8,2,17,0.00
2014-7-7,83.6,70.3,63.1,67.6,64.7,61.9,100,85,49,30.05,29.90,10,4,17,0.00
2014-7-8,83.4,66.0,60.1,64.6,61.6,58.0,100,89,43,29.98,29.91,10,2,13,0.00
2014-7-9,74.0,66.3,57.6,59.5,57.3,54.8,100,74,56,29.98,29.87,10,4,21,0.00
2014-7-10,81.2,65.9,52.6,63.9,57.7,52.6,100,78,47,29.92,29.77,9,1,16,0.00
2014-7-11,84.3,68.8,58.6,65.3,60.5,56.3,100,79,41,29.95,29.84,7,1,14,0.00
2014-7-12,82.4,68.3,59.9,65.4,62.1,59.9,100,83,51,30.05,29.95,8,2,14,0.00
2014-7-13,69.8,63.1,59.3,66.1,61.8,59.3,100,96,78,30.09,29.96,6,2,17,0.00
2014-7-14,76.8,65.1,59.3,65.0,61.0,59.3,100,89,61,30.10,29.98,7,2,19,0.00
2014-7-15,83.8,68.0,58.0,65.3,61.3,58.0,100,82,51,30.05,29.87,9,3,20,0.00
2014-7-16,78.8,65.0,57.5,63.4,60.0,57.5,100,86,54,29.98,29.87,9,2,20,0.00
2014-7-17,73.7,64.5,57.5,58.7,55.2,51.0,100,75,48,30.00,29.93,12,3,21,0.00
2014-7-18,72.7,62.2,51.4,63.2,55.8,51.4,100,82,53,30.06,29.99,10,2,17,0.00
2014-7-19,83.2,68.6,60.2,67.6,62.7,60.2,100,84,52,30.05,29.90,7,1,14,0.00
2014-7-20,67.8,63.3,59.0,64.8,55.0,48.7,100,76,55,29.93,29.89,5,2,10,0.00
2014-7-21,79.6,64.8,50.1,58.4,51.5,45.7,100,68,32,29.99,29.87,4,1,12,0.00
2014-7-22,78.3,67.3,60.5,67.4,58.9,54.4,100,77,47,30.00,29.90,4,0,6,0.00
2014-7-23,66.1,61.6,58.9,64.2,59.0,48.3,100,92,54,30.05,29.91,8,1,17,0.00
2014-7-24,66.9,60.9,56.7,63.5,57.7,54.6,100,90,65,30.18,30.03,8,2,13,0.00
2014-7-25,75.6,62.5,50.2,59.9,54.6,50.2,100,79,47,30.14,29.98,7,2,12,0.00
2014-7-26,82.0,66.3,52.2,63.7,56.9,51.1,100,76,38,30.10,30.00,5,0,7,0.07
2014-7-27,85.7,70.5,55.1,62.6,55.5,44.6,100,67,25,30.08,29.95,10,3,19,0.00
2014-7-28,89.5,72.3,58.4,64.0,60.0,51.7,100,71,28,30.04,29.94,11,2,18,0.00
2014-7-29,83.8,68.4,57.5,64.7,60.1,57.3,100,78,47,30.08,29.95,13,3,24,0.00
2014-7-30,87.2,69.2,56.2,62.1,57.8,49.5,100,73,29,30.08,29.94,10,2,19,0.00
2014-7-31,89.0,72.6,56.2,60.5,54.8,46.4,100,59,24,30.02,29.88,10,3,16,0.00
2014-8-1,88.6,71.8,61.6,63.9,57.8,50.0,100,66,27,29.99,29.83,8,2,18,0.00
2014-8-2,79.8,67.5,59.2,65.5,61.1,58.1,100,82,53,29.96,29.88,7,2,18,0.00
2014-8-3,90.5,70.3,58.0,65.1,61.2,54.7,100,78,31,29.99,29.80,7,2,13,0.00
2014-8-4,83.2,68.6,59.0,65.6,61.0,57.8,100,80,47,29.94,29.82,12,3,21,0.00
2014-8-5,76.8,65.2,57.8,65.0,59.9,56.1,100,85,56,30.04,29.94,11,2,17,0.00
2014-8-6,79.2,68.1,61.0,64.8,59.6,49.5,100,77,50,30.09,29.98,10,2,18,0.00
2014-8-7,75.8,63.2,54.1,59.6,55.8,50.8,100,80,46,30.06,29.96,12,2,25,0.00
2014-8-8,75.3,64.0,52.9,58.4,55.6,52.6,100,77,51,30.07,29.99,11,2,21,0.00
2014-8-9,83.2,66.9,51.6,58.5,53.8,45.5,100,69,28,30.09,29.96,8,3,16,0.00
2014-8-10,89.5,73.4,56.0,59.3,53.6,47.5,100,57,27,30.02,29.83,11,4,19,0.00
2014-8-11,104.6,77.7,64.8,64.8,58.8,50.3,88,56,18,29.91,29.71,10,1,17,0.00
2014-8-12,73.3,65.5,62.1,72.1,65.1,62.1,100,98,82,29.86,29.76,6,0,11,0.00
2014-8-13,72.5,66.8,63.1,71.5,65.7,63.1,100,96,80,29.94,29.85,5,1,12,0.00
2014-8-14,78.3,67.9,61.2,69.8,63.0,55.9,100,87,50,29.95,29.88,7,1,10,0.00
2014-8-15,79.2,69.4,65.5,70.3,65.7,62.1,100,89,60,29.99,29.90,6,1,13,0.00
2014-8-16,81.6,70.9,61.0,68.4,62.5,58.2,100,78,46,30.04,29.95,8,2,13,0.00
2014-8-17,83.8,69.9,61.5,69.4,63.2,58.9,100,82,51,30.04,29.91,11,3,21,0.00
2014-8-18,88.0,69.9,57.0,65.8,61.3,57.0,100,78,40,29.96,29.73,8,2,19,0.00
2014-8-19,73.2,66.6,60.9,65.3,61.9,56.8,100,86,68,29.82,29.74,13,4,21,0.00
2014-8-20,72.1,62.8,53.6,59.2,54.2,48.7,100,77,44,29.96,29.82,8,1,17,0.00
2014-8-21,77.0,63.7,51.3,60.9,51.4,38.0,100,71,25,29.99,29.88,6,1,12,0.00
2014-8-22,77.2,65.0,55.6,62.7,57.7,50.2,100,81,41,30.03,29.91,10,2,17,0.00
2014-8-23,85.9,68.6,53.6,61.8,55.7,42.1,100,70,22,30.08,29.92,8,1,14,0.00
2014-8-24,75.4,64.9,55.6,62.8,58.7,55.6,100,82,58,29.95,29.82,8,2,17,0.00
2014-8-25,87.0,71.8,55.9,62.4,55.7,45.4,100,65,25,29.95,29.84,7,1,13,0.00
2014-8-26,88.8,72.1,56.9,66.5,58.6,49.8,100,68,28,29.98,29.87,8,1,16,0.00
2014-8-27,80.5,68.0,61.3,66.4,62.0,57.6,100,83,54,30.00,29.93,9,2,16,0.00
2014-8-28,78.8,66.9,56.9,67.8,61.1,56.9,100,84,52,30.07,29.94,8,1,14,0.00
2014-8-29,73.3,67.1,62.3,66.3,60.8,54.1,100,82,54,29.95,29.88,8,1,14,0.00
2014-8-30,70.8,64.1,60.2,66.0,60.2,53.0,100,89,58,29.95,29.83,7,2,17,0.00
2014-8-31,73.5,63.2,53.9,61.1,55.1,47.2,100,78,44,30.01,29.95,7,1,14,0.00
2014-9-1,78.6,65.4,52.2,66.8,56.4,47.9,100,77,39,30.03,29.91,6,1,16,0.00
2014-9-2,70.1,62.9,57.6,64.2,57.2,49.7,100,83,50,29.92,29.84,11,2,22,0.00
2014-9-3,72.7,61.7,54.2,57.0,52.4,47.7,100,74,43,30.03,29.91,3,0,11,0.00
2014-9-4,79.6,63.5,49.4,56.3,50.6,47.0,100,69,32,30.04,29.90,11,3,19,0.00
2014-9-5,86.5,69.7,54.5,57.6,51.2,45.3,100,58,25,30.02,29.87,11,4,17,0.00
2014-9-6,95.1,71.3,58.0,61.3,51.3,42.2,100,56,17,29.92,29.73,9,4,17,0.00
2014-9-7,77.0,63.5,56.9,63.9,58.4,56.0,100,86,50,29.85,29.75,6,1,13,0.00
2014-9-8,71.3,62.9,58.9,65.0,60.6,57.6,100,93,62,29.91,29.82,11,2,22,0.00
2014-9-9,66.8,59.0,55.6,61.0,55.9,50.6,100,90,58,30.06,29.91,1,0,3,0.00
2014-9-11,78.8,71.6,55.0,37.0,27.6,22.7,49,22,13,30.09,29.99,5,1,16,0.00
2014-9-12,81.1,64.9,50.5,38.5,34.2,30.1,54,35,17,29.99,29.79,10,5,14,0.00
2014-9-13,86.3,66.5,49.4,43.2,38.8,32.4,77,41,15,29.86,29.71,10,2,14,0.00
2014-9-14,93.6,68.3,47.9,48.7,41.9,32.2,95,47,12,29.82,29.70,4,0,10,0.00
2014-9-15,93.8,66.8,49.2,61.3,49.7,39.2,100,64,15,29.80,29.66,9,0,21,0.00
2014-9-16,72.8,63.4,57.2,62.1,57.5,53.2,100,83,54,29.86,29.77,2,0,7,0.00
2014-9-17,74.2,64.7,56.9,66.8,60.0,56.2,100,87,55,29.77,29.60,8,1,14,0.00
2014-9-18,71.5,64.4,60.7,66.4,61.5,56.9,100,91,62,29.93,29.65,6,0,12,0.00
2014-9-19,78.1,66.9,58.1,67.1,60.4,53.6,100,83,47,30.03,29.92,7,1,13,0.00
2014-9-20,82.2,69.6,60.1,63.6,59.7,56.4,100,75,42,30.00,29.74,13,6,21,0.00
2014-9-21,76.3,65.2,57.5,65.6,61.1,57.5,100,88,56,29.90,29.76,6,1,12,0.00
2014-9-22,74.0,65.5,61.5,63.5,59.7,53.6,100,84,50,29.94,29.83,2,0,8,0.00
2014-9-23,65.6,61.3,56.9,65.6,61.3,56.9,100,100,100,29.84,29.61,4,0,6,0.00
2014-9-24,69.9,65.5,61.8,68.4,64.5,61.6,100,97,81,29.79,29.66,5,2,18,0.00
2014-9-25,71.1,63.6,60.7,66.1,61.1,54.3,100,93,56,29.83,29.75,5,1,16,0.00
2014-9-26,65.6,62.0,58.9,64.7,61.9,58.9,100,100,89,30.01,29.84,4,1,13,0.00
2014-9-27,70.8,62.9,57.3,65.9,58.0,49.3,100,86,55,30.05,29.97,6,1,12,0.00
2014-9-28,72.3,60.0,52.2,63.4,56.6,52.2,100,90,56,29.98,29.83,9,1,13,0.00
2014-9-29,62.0,58.9,56.5,62.0,58.7,56.4,100,99,86,29.97,29.85,5,0,11,0.00
2014-9-30,65.5,59.2,53.3,62.1,55.8,52.3,100,90,63,30.12,29.97,6,1,11,0.00
2014-10-1,68.4,56.5,48.0,59.3,50.8,48.0,100,84,53,30.19,30.11,4,0,10,0.00
2014-10-2,70.1,58.5,48.6,56.2,50.5,44.8,100,78,41,30.21,30.14,7,1,11,0.00
2014-10-3,88.8,62.4,47.6,57.3,50.4,44.2,100,73,22,30.19,30.05,2,0,10,0.00
2014-10-4,85.3,64.7,49.8,63.5,53.7,46.9,100,74,28,30.13,30.01,7,1,10,0.00
2014-10-5,79.4,67.1,56.9,63.1,58.6,55.0,100,78,43,30.05,29.94,9,3,17,0.00
2014-10-6,81.6,67.8,56.9,64.3,59.9,56.9,100,79,46,29.98,29.83,8,2,12,0.00
2014-10-7,79.6,66.8,60.1,66.0,61.8,59.4,100,86,53,29.90,29.79,5,1,12,0.00
2014-10-8,70.6,60.8,53.5,63.7,57.8,53.5,100,91,64,29.94,29.86,9,1,11,0.00
2014-10-9,74.6,61.7,54.8,61.8,56.3,48.5,100,86,42,29.98,29.90,5,1,8,0.00
2014-10-10,66.9,60.7,56.3,61.2,58.2,55.3,100,92,67,30.04,29.96,4,0,7,0.00
2014-10-11,67.8,61.0,55.1,66.4,58.8,52.8,100,93,60,30.18,29.97,8,1,16,0.00
2014-10-12,63.7,57.6,51.9,62.0,56.0,51.9,100,95,72,30.22,29.97,3,1,10,0.00
2014-10-13,69.3,59.4,49.1,63.2,52.7,48.9,100,82,49,29.97,29.62,6,2,21,0.00
2014-10-14,60.7,56.4,54.7,60.5,56.4,54.7,100,100,96,29.77,29.69,3,0,8,0.00
2014-10-15,58.0,55.7,53.5,58.0,55.6,53.5,100,100,95,29.94,29.55,5,2,12,0.00
2014-10-16,69.3,58.9,53.2,57.5,53.0,44.3,100,84,42,29.95,29.73,3,1,13,0.00
2014-10-17,60.1,56.3,52.9,59.2,55.8,52.9,100,98,79,29.81,29.66,4,1,10,0.00
2014-10-18,71.5,63.5,57.8,66.5,62.2,57.8,100,96,70,29.89,29.73,5,1,13,0.00
2014-10-19,74.2,63.6,55.9,66.4,59.4,54.4,100,88,55,29.73,29.62,6,2,16,0.00
2014-10-20,64.3,60.3,56.0,62.7,59.6,54.9,100,98,78,29.76,29.63,7,2,19,0.00
2014-10-21,62.0,57.7,55.3,58.5,54.9,47.7,100,91,65,29.91,29.72,10,2,16,0.00
2014-10-22,58.7,57.0,55.7,58.7,56.5,49.5,100,98,76,29.70,29.55,11,4,30,0.00
2014-10-23,62.1,57.3,54.8,60.1,55.8,46.6,100,95,58,29.84,29.66,3,0,17,0.03
2014-10-24,57.2,55.3,51.0,57.2,55.3,51.0,100,100,100,29.95,29.61,6,3,12,0.11
2014-10-25,65.2,57.9,53.2,62.6,57.1,52.8,100,98,73,29.78,29.25,11,3,30,0.00
2014-10-26,61.0,53.6,50.4,59.2,53.0,49.4,100,98,71,30.10,29.79,4,0,12,0.08
2014-10-27,61.6,55.2,48.8,59.2,52.0,48.4,100,90,62,30.11,29.88,5,1,14,0.00
2014-10-28,59.6,56.7,53.3,59.6,56.1,50.8,100,98,84,29.92,29.82,6,2,26,0.00
2014-10-29,65.0,60.4,57.0,63.7,59.1,57.0,100,96,76,30.07,29.92,5,1,13,0.00
2014-10-30,64.5,59.8,56.6,64.5,59.8,56.6,100,100,98,29.93,29.68,7,1,13,0.31
2014-10-31,63.1,56.6,52.2,61.8,56.5,52.2,100,100,79,29.80,29.62,5,0,8,0.81
2014-11-1,63.2,55.5,52.3,61.0,54.9,52.3,100,98,77,30.01,29.76,2,0,5,0.00
2014-11-2,60.4,57.5,53.3,60.4,57.5,53.3,100,100,100,30.11,30.01,6,2,16,0.17
2014-11-3,63.7,62.1,59.9,63.7,62.1,59.9,100,100,100,30.11,30.00,6,3,16,0.16
2014-11-4,66.6,62.9,58.1,66.1,62.5,58.1,100,99,81,30.23,29.97,5,1,13,0.00
2014-11-5,66.9,63.5,58.3,66.9,63.5,58.3,100,100,100,30.22,29.90,2,0,7,0.00
2014-11-6,68.1,62.9,55.1,67.8,62.6,55.1,100,99,85,30.26,29.79,6,2,20,0.17
2014-11-7,64.3,56.1,50.4,63.1,54.8,50.4,100,96,64,30.41,30.26,1,0,5,0.00
2014-11-8,58.3,50.4,45.7,53.6,49.5,45.7,100,97,74,30.28,30.02,7,1,11,0.01
2014-11-9,62.7,55.3,48.3,61.8,54.7,48.3,100,98,79,30.03,29.86,3,1,11,0.02
2014-11-10,59.6,52.3,44.1,55.1,49.5,44.1,100,91,65,30.09,29.96,9,2,14,0.00
2014-11-11,52.3,42.5,31.3,44.1,26.2,2.8,100,61,21,30.16,30.02,9,3,22,0.00
2014-11-12,46.5,35.2,26.3,25.6,14.3,-2.3,88,51,15,30.17,29.96,7,2,14,0.00
2014-11-13,38.8,34.4,28.5,33.8,26.7,18.1,93,74,47,29.96,29.83,9,2,13,0.00
2014-11-14,46.0,36.9,29.4,35.8,27.5,17.2,100,73,35,30.20,29.92,7,1,7,0.00
2014-11-15,48.6,34.0,25.0,30.1,20.3,6.6,100,66,19,30.44,30.20,4,1,11,0.00
2014-11-16,49.2,33.9,23.8,28.1,21.8,10.0,100,68,24,30.41,30.26,6,1,10,0.00
2014-11-17,53.5,40.2,27.5,29.4,25.3,18.9,100,60,26,30.32,30.10,2,0,10,0.00
2014-11-18,43.2,35.9,27.6,29.4,24.4,20.5,100,66,43,30.10,30.01,3,1,12,0.00
2014-11-19,53.3,41.7,35.3,37.8,27.0,23.0,96,58,33,30.00,29.75,4,1,16,0.00
2014-11-20,48.5,43.2,38.3,48.0,42.6,36.8,100,98,90,29.94,29.85,3,1,10,0.00
2014-11-21,53.6,47.5,42.5,53.6,47.3,41.2,100,99,94,29.85,29.28,6,2,14,0.00
2014-11-22,55.0,48.3,43.1,54.1,48.2,43.1,100,100,93,30.14,29.55,2,0,8,0.00
2014-11-23,54.5,50.9,47.6,54.5,50.9,47.6,100,100,100,30.29,30.12,9,1,13,0.00
2014-11-24,58.9,54.7,49.4,58.9,54.7,49.4,100,100,100,30.30,30.12,0,0,0,0.00
2014-11-25,70.4,64.5,57.8,70.3,64.4,57.6,100,100,97,30.22,30.13,5,1,8,0.00
2014-11-26,66.8,63.8,61.2,65.6,61.0,49.2,100,91,65,30.19,29.86,5,2,13,0.00
2014-11-27,61.5,57.4,54.4,58.7,54.7,44.7,100,92,55,29.85,29.70,8,3,21,0.00
2014-11-28,58.3,54.0,46.8,58.3,54.0,46.8,100,100,100,29.69,29.36,5,1,16,0.00
2014-11-29,46.8,39.6,30.0,46.8,35.9,22.7,100,87,64,30.09,29.52,13,3,19,0.00
2014-11-30,39.9,31.5,26.9,31.3,25.7,21.8,100,80,56,30.10,29.98,12,4,18,0.00
2014-12-1,46.1,32.8,26.4,34.1,29.4,26.4,100,89,53,30.12,30.02,5,0,7,0.00
2014-12-2,41.2,35.0,28.8,34.6,31.9,28.8,100,89,71,30.11,29.80,4,1,10,0.00
2014-12-3,47.4,39.9,33.7,40.8,35.3,31.8,100,85,60,29.79,29.64,5,1,7,0.00
2014-12-4,45.5,42.8,39.3,45.5,41.5,32.1,100,95,65,29.87,29.70,3,1,7,0.00
2014-12-5,53.5,48.5,45.2,52.0,47.7,45.2,100,97,86,29.89,29.69,4,1,12,0.00
2014-12-6,59.8,53.0,46.1,59.6,52.9,46.1,100,100,93,30.14,29.77,5,2,17,0.00
2014-12-7,55.3,52.2,49.2,55.3,51.3,46.4,100,97,78,30.13,29.92,5,0,10,0.00
2014-12-8,52.6,50.5,47.0,47.5,45.2,42.7,97,82,74,29.98,29.81,4,2,13,0.00
2014-12-9,60.2,53.0,49.5,60.2,52.9,46.0,100,99,84,29.84,29.74,4,2,11,0.00
2014-12-10,65.8,63.4,60.7,56.5,54.2,52.4,86,72,62,29.40,29.38,6,3,12,0.05
2014-12-18,46.0,46.0,46.0,-99.9,0.0,200.0,0,0,100,29.85,29.85,2,2,10,0.00
2014-12-19,54.4,51.3,48.2,52.0,48.5,46.8,100,91,77,29.92,29.78,5,2,14,0.00
2014-12-20,60.5,53.4,48.3,60.5,53.4,48.3,100,100,100,29.78,29.49,9,4,20,0.67
2014-12-21,61.2,58.1,54.5,61.0,57.1,53.2,100,97,83,30.08,29.59,10,1,18,0.25
2014-12-22,60.7,54.3,50.8,59.9,53.8,50.8,100,98,75,30.31,30.08,1,0,2,0.01
2014-12-23,58.6,54.4,51.0,58.6,54.4,51.0,100,100,100,30.24,29.97,13,2,25,0.14
2014-12-24,57.5,53.2,50.2,55.1,51.8,48.9,100,95,77,30.00,29.84,8,0,14,0.00
2014-12-25,55.1,50.6,46.4,54.1,49.7,46.4,100,97,81,30.22,30.00,0,0,2,0.00
2014-12-26,53.6,50.4,46.4,53.3,50.3,46.2,100,100,96,30.30,30.20,2,0,6,0.00
2014-12-27,53.3,51.8,50.7,53.3,51.8,50.7,100,100,100,30.26,30.06,5,1,13,0.01
2014-12-28,55.6,51.9,48.0,55.0,51.6,48.0,100,99,83,30.18,30.06,4,0,7,0.00
2014-12-29,51.3,45.3,33.5,48.0,38.9,25.9,100,81,41,30.59,30.05,10,2,21,0.00
2014-12-30,40.6,33.0,27.0,33.5,26.0,14.8,100,80,36,30.75,30.59,0,0,0,0.00
2014-12-31,39.9,32.3,26.4,29.1,26.7,24.5,100,81,56,30.65,30.32,3,0,6,0.00
2015-1-1,47.9,33.5,27.0,33.1,29.2,26.6,100,87,46,30.32,30.14,2,0,5,0.00
2015-1-2,38.3,35.2,30.4,37.3,27.7,23.0,100,75,56,30.17,30.10,4,1,12,0.00